Regional Weather Roundup
Issued by NWS

Home | Current Version | Previous Version | Graphics & Text | Print | Product List | Glossary On
Versions: 1 2 3 4 5 6 7 8 9 10 11 12 13 14 15 16 17 18 19 20 21 22 23 24 25 26 27 28 29 30 31 32 33 34 35 36 37 38 39 40 41 42 43 44 45 46 47 48 49 50
334
ASUS45 KBOU 270010
RWRCO

WEATHER ROUNDUP FOR COLORADO
NATIONAL WEATHER SERVICE DENVER/BOULDER CO
600 PM MDT SAT MAY 26 2018

NOTE: "FAIR" INDICATES FEW OR NO CLOUDS BELOW 12000 FEET WITH NO
SIGNIFICANT WEATHER AND/OR OBSTRUCTIONS TO VISIBILITY.

COZ001>005-013-030-031-270100-
...NORTHWEST COLORADO...

CITY           SKY/WX    TMP DP  RH WIND       PRES   REMARKS
CRAIG          FAIR      80  26  13 S15       29.82S
HAYDEN         FAIR      78  23  13 S15G24    29.87R
MEEKER         LGT RAIN  82  17   9 SE17G29   29.82F
RANGELY        FAIR      90   9   5 S22G33    29.72F
RABBIT EARS PA FAIR      57  14  18 SE3       30.20F
STEAMBOAT SPGS FAIR      77  20  12 S8        29.89F
WALDEN         FAIR      75  14   9 SW23G32   30.02S
$$

COZ006>008-011-270100-
...WEST CENTRAL VALLEYS...

CITY           SKY/WX    TMP DP  RH WIND       PRES   REMARKS
GRAND JUNCTION FAIR      90  20   7 S24G35    29.70F
MONTROSE       FAIR      85  16   7 SW23G29   29.81F
EAGLE          FAIR      85  12   6 SE18G29   29.88F
RIFLE          FAIR      87  14   6 S22G37    29.77F
DELTA          FAIR      92  20   7 S17G36    29.76F
NUCLA          FAIR      86  12   6 SW26G40   29.86S
$$

COZ017>023-064>068-270100-
...SOUTHWEST COLORADO...

CITY           SKY/WX    TMP DP  RH WIND       PRES   REMARKS
DURANGO        FAIR      77  16  10 S14G29    29.96F
CORTEZ         FAIR      84  16   8 SE17G35   29.85F
PAGOSA SPRINGS FAIR      73   3   6 S15       30.07F
TELLURIDE      FAIR      67  18  14 S23G41    30.10F
WOLF CREEK PAS FAIR      50  12  22 S24G46    30.37F
$$

COZ009-010-012-014-032>034-037-058>063-270100-
...CENTRAL COLORADO...

CITY           SKY/WX    TMP DP  RH WIND       PRES   REMARKS
ASPEN          FAIR      73  14  10 S9        29.98F
BUENA VISTA    FAIR      73   9   8 S16G26    30.05F
COPPER MTN     FAIR      54   5  14 SE20G26   30.35F
BERTHOUD PASS  FAIR      46  36  66 S17G33    30.40S
COTTONWOOD PAS FAIR      68   1   7 SE8G21    30.21F
GUNNISON       FAIR      71  19  14 S12       30.02F
GRANBY         FAIR      70  14  12 S13G20    30.05S
KREMMLING      FAIR      81   5   5 S14G23    29.97F
LEADVILLE      FAIR      62  10  13 S25G38    30.17F
MONARCH PASS   PTSUNNY   52   9  17 MISG      30.46F
SALIDA         FAIR      76  11   8 SW20G32   30.11S
SUNLIGHT       FAIR      59  14  17 S10G24    30.22F
WILKERSON PASS PTSUNNY   55   1  11 SW8G17    30.35F
$$

COZ069>075-270100-
...SAN LUIS VALLEY/SANGRE DE CRISTO MOUNTAINS...

CITY           SKY/WX    TMP DP  RH WIND       PRES   REMARKS
ALAMOSA        FAIR      74  14  10 SW10      30.05F
DEL NORTE      FAIR      72  17  12 S20G36    30.09S
LA VETA PASS   FAIR      63   9  12 S21G32    30.37S
SAGUACHE       NOT AVBL
$$

COZ035-036-038>040-270100-
...NORTHERN COLORADO FRONT RANGE...

CITY           SKY/WX    TMP DP  RH WIND       PRES   REMARKS
DENVER INTL AP PTSUNNY   87  39  18 W13       29.80F
AURORA         CLOUDY    84  30  14 SW12G18   29.84R
FRONT RANGE AP PTSUNNY   90  21   8 S15G21    29.83S
ERIE MUNI ARPT FAIR      79  47  31 NW6       29.84F
BOULDER MUN AP FAIR      79  45  29 W3        29.80F
CENTENNIAL     CLOUDY    83  19   9 SW14      29.86S
BROOMFIELD     CLOUDY    82  37  20 NW8       29.84
FORT COLLINS   FAIR      85  48  27 CALM      29.79F
LONGMONT       FAIR      83  51  32 NW6       29.81F
$$

COZ041-046-047-076>085-087-088-270100-
...PIKES PEAK/PALMER DIVIDE AND SOUTHERN FOOTHILLS...

CITY           SKY/WX    TMP DP  RH WIND       PRES   REMARKS
COLO. SPRINGS  CLOUDY    85  13   7 SW13      29.91S
A. F. ACADEMY  FAIR      81   4   5 S14       29.93F
SCHRIEVER AFB  NOT AVBL
CHEYENNE MTN   NOT AVBL
ELLICOTT         N/A    N/A N/A N/A S18G25    29.89S
FALCON         FAIR      81   9   6 S14G25    29.99R
FORT CARSON    PTSUNNY   85   1   4 W12G22    29.87S
LIMON          FAIR      86  28  12 SE25G33   29.86F
MONUMENT HILL  FAIR      77  19  11 SW18      29.99F
CANON CITY     SUNNY     86  19   8 NW5       29.84F
WALSENBURG     FAIR      88  18   7 S10G16    29.90F
TRINIDAD       FAIR      85  15   7 S16G23    29.90F
$$

COZ042>045-048>051-090-091-270100-
...NORTHEAST COLORADO...

CITY           SKY/WX    TMP DP  RH WIND       PRES   REMARKS
GREELEY ARPT   FAIR      83  52  34 VRB3      29.75F
AKRON          FAIR      84  47  27 SE16      29.80S
BURLINGTON     FAIR      88  41  19 S29G37    29.83F
WRAY           FAIR      88  39  18 SE16G25   29.79S
YUMA           FAIR      84  45  24 SE18G25   29.79F
STERLING       FAIR      88  46  23 SE17G25   29.74F
HOLYOKE        FAIR      91  43  18 S20G29    29.78F
FORT MORGAN    FAIR      86  30  13 SE16      29.77F
$$

COZ086-089-092>099-270100-
...SOUTHEAST COLORADO...

CITY           SKY/WX    TMP DP  RH WIND       PRES   REMARKS
PUEBLO         FAIR      92  16   6 SW14      29.77S
LA JUNTA       FAIR      95  20   6 S23G39    29.76S
LAMAR          FAIR      93  38  14 S24G33    29.75S
SPRINGFIELD      N/A     89  31  12 S21       29.85S
$$




USA.gov is the U.S. government's official web portal to all federal, state and local government web resources and services.